Miscellaneous Local Product
Issued by NWS Hastings, NE

Home | Current Version | Previous Version | Graphics & Text | Print | Product List | Glossary On
Versions: 1 2 3 4 5 6 7 8 9 10 11 12 13 14 15 16 17 18 19 20 21 22 23 24 25 26 27 28 29 30 31 32 33 34 35 36 37 38 39 40 41 42 43 44 45 46 47 48 49 50
000
AXUS43 KGID 310902
MISGRI

GID CWA HOURLY WEATHER ROUNDUP
NATIONAL WEATHER SERVICE HASTINGS NE
400 AM CDT FRI JUL 31 2015

NOTE: "FAIR" INDICATES FEW OR NO CLOUDS BELOW 12,000 FEET WITH NO
SIGNIFICANT WEATHER AND/OR OBSTRUCTIONS TO VISIBILITY.

...SOUTH CENTRAL NEBRASKA...

CITY           SKY/WX    TMP DP  RH WIND       PRES   REMARKS
GRAND ISLAND   CLEAR     71  67  87 SW8       30.18R
HASTINGS       CLEAR     69  66  90 S5        30.18F
KEARNEY        CLEAR     70  64  83 SW6       30.19S
ORD            CLEAR     64  62  93 CALM      30.17R
YORK           CLEAR     68  66  94 SW7       30.16S
AURORA         CLEAR     69  68  96 SW8       30.17S
LEXINGTON      CLEAR     65  64  94 CALM      30.20S
HOLDREGE       CLEAR     68  64  87 SW6       30.20S
HEBRON         CLEAR     70  65  85 CALM      30.17S

...NEBRASKA PANHANDLE...

CITY           SKY/WX    TMP DP  RH WIND       PRES   REMARKS
CHADRON        CLEAR     57  49  74 CALM      30.22S
ALLIANCE       CLEAR     57  55  93 SW9       30.25F
SCOTTSBLUFF    CLEAR     62  58  86 N3        30.27S
SIDNEY         CLEAR     56  54  93 W9        30.29F

...WESTERN AND NORTH CENTRAL NEBRASKA...

CITY           SKY/WX    TMP DP  RH WIND       PRES   REMARKS
VALENTINE      CLEAR     62  51  67 MISG      30.18F
AINSWORTH      CLEAR     63  56  78 CALM      30.18F
ONEILL         CLEAR     64  63  96 W3        30.16F
BROKEN BOW     CLEAR     64  61  90 CALM      30.19F
IMPERIAL       CLEAR     60  56  86 N3        30.23F
NORTH PLATTE   CLEAR     63  60  90 E3        30.20F
MCCOOK         CLEAR     67  63  87 SW7       30.20F

...EASTERN NEBRASKA...

CITY           SKY/WX    TMP DP  RH WIND       PRES   REMARKS
NORFOLK        CLEAR     68  63  84 SE9       30.15S
SO SIOUX CITY  PTCLDY    69  62  78 CALM      30.12F
TEKAMAH        CLOUDY    70  64  81 SW8       30.12F
COLUMBUS       CLEAR     63  57  82 CALM      30.16S
ALBION         CLEAR     66  63  89 CALM      30.16S
OMAHA EPPLEY   MOCLDY    70  66  87 N10G18    30.17R THUNDER
OFFUTT AFB     PTCLDY    68  65  92 NE2       30.14R
MILLARD        PTCLDY    71  64  78 CALM      30.14S
LINCOLN        CLEAR     70  63  78 SW3       30.15F
NEBRASKA CITY  CLEAR     68  60  75 SW10      30.15F
BEATRICE       CLEAR     68  63  85 CALM      30.16F
FALLS CITY     CLEAR     67  62  84 S5        30.14F

...NORTHERN KANSAS...

CITY           SKY/WX    TMP DP  RH WIND       PRES   REMARKS
GOODLAND       CLEAR     60  58  92 NW3       30.26R
HILL CITY      CLEAR     71  68  90 W5        30.21R
NORTON         SUNNY     68  63  83 S3        30.19F
PHILLIPSBURG   CLEAR     72  72 100 CALM      30.19S
SMITH CENTER   CLEAR     66  64  94 SE3       30.20S
HAYS           PTCLDY    70  61  73 CALM      30.19F
RUSSELL        PTCLDY    69  67  93 S6        30.18S
CONCORDIA      CLEAR     71  66  84 SW7       30.17F
SALINA         CLEAR     70  66  87 CALM      30.17F
TOPEKA         PTCLDY    65  64  97 CALM      30.16F



USA.gov is the U.S. government's official web portal to all federal, state and local government web resources and services.